owner,sensor,date,latitude,longitude,vertical_datum,wind_speed,wind_to_direction,wind_speed_of_gust,qcFlag 
DISL,ioos:station:DISL:PPTA:1,2015-03-01T00:00:00Z,30.2791,-87.5561,0.0,4.83,84.7,-9999.0,'1111122,1111122,1111122' 
DISL,ioos:station:DISL:PPTA:1,2015-03-01T00:30:00Z,30.2791,-87.5561,0.0,3.97,85.7,-9999.0,'1111122,1111122,1111122' 
DISL,ioos:station:DISL:PPTA:1,2015-03-01T01:00:00Z,30.2791,-87.5561,0.0,4.73,86.3,-9999.0,'1111122,1111122,1111122' 
DISL,ioos:station:DISL:PPTA:1,2015-03-01T01:30:00Z,30.2791,-87.5561,0.0,3.97,89.5,-9999.0,'1111122,1111122,1111122' 
DISL,ioos:station:DISL:PPTA:1,2015-03-01T02:00:00Z,30.2791,-87.5561,0.0,3.52,83.4,-9999.0,'1111122,1111122,1111122' 
DISL,ioos:station:DISL:PPTA:1,2015-03-01T02:30:00Z,30.2791,-87.5561,0.0,4.17,82.8,-9999.0,'1111122,1111122,1111122' 
DISL,ioos:station:DISL:PPTA:1,2015-03-01T03:00:00Z,30.2791,-87.5561,0.0,4.64,81.4,-9999.0,'1111122,1111122,1111122' 
DISL,ioos:station:DISL:PPTA:1,2015-03-01T03:30:00Z,30.2791,-87.5561,0.0,5.38,80.7,-9999.0,'1111122,1111122,1111122' 
DISL,ioos:station:DISL:PPTA:1,2015-03-01T04:00:00Z,30.2791,-87.5561,0.0,5.97,80.4,-9999.0,'1111122,1111122,1111122' 
DISL,ioos:station:DISL:PPTA:1,2015-03-01T04:30:00Z,30.2791,-87.5561,0.0,6.3,72.74,-9999.0,'1111122,1111122,1111122' 
DISL,ioos:station:DISL:PPTA:1,2015-03-01T05:00:00Z,30.2791,-87.5561,0.0,6.29,73.9,-9999.0,'1111122,1111122,1111122' 
DISL,ioos:station:DISL:PPTA:1,2015-03-01T05:30:00Z,30.2791,-87.5561,0.0,6.1,79.95,-9999.0,'1111122,1111122,1111122' 
DISL,ioos:station:DISL:PPTA:1,2015-03-01T06:00:00Z,30.2791,-87.5561,0.0,5.31,71.44,-9999.0,'1111122,1111122,1111122' 
DISL,ioos:station:DISL:PPTA:1,2015-03-01T06:30:00Z,30.2791,-87.5561,0.0,5.64,74.84,-9999.0,'1111122,1111122,1111122' 
DISL,ioos:station:DISL:PPTA:1,2015-03-01T07:00:00Z,30.2791,-87.5561,0.0,5.63,78.34,-9999.0,'1111122,1111122,1111122' 
DISL,ioos:station:DISL:PPTA:1,2015-03-01T07:30:00Z,30.2791,-87.5561,0.0,5.55,78.5,-9999.0,'1111122,1111122,1111122' 
DISL,ioos:station:DISL:PPTA:1,2015-03-01T08:00:00Z,30.2791,-87.5561,0.0,5.57,72.03,-9999.0,'1111122,1111122,1111122' 
DISL,ioos:station:DISL:PPTA:1,2015-03-01T08:30:00Z,30.2791,-87.5561,0.0,4.98,72.93,-9999.0,'1111122,1111122,1111122' 
DISL,ioos:station:DISL:PPTA:1,2015-03-01T09:00:00Z,30.2791,-87.5561,0.0,4.78,77.04,-9999.0,'1111122,1111122,1111122' 
DISL,ioos:station:DISL:PPTA:1,2015-03-01T09:30:00Z,30.2791,-87.5561,0.0,5.18,70.88,-9999.0,'1111122,1111122,1111122' 
DISL,ioos:station:DISL:PPTA:1,2015-03-01T10:00:00Z,30.2791,-87.5561,0.0,5.26,76.23,-9999.0,'1111122,1111122,1111122' 
DISL,ioos:station:DISL:PPTA:1,2015-03-01T10:30:00Z,30.2791,-87.5561,0.0,5.45,79.16,-9999.0,'1111122,1111122,1111122' 
DISL,ioos:station:DISL:PPTA:1,2015-03-01T11:00:00Z,30.2791,-87.5561,0.0,6.15,82.5,-9999.0,'1111122,1111122,1111122' 
DISL,ioos:station:DISL:PPTA:1,2015-03-01T11:30:00Z,30.2791,-87.5561,0.0,4.92,83.7,-9999.0,'1111122,1111122,1111122' 
DISL,ioos:station:DISL:PPTA:1,2015-03-01T12:00:00Z,30.2791,-87.5561,0.0,5.26,78.88,-9999.0,'1111122,1111122,1111122' 
DISL,ioos:station:DISL:PPTA:1,2015-03-01T12:30:00Z,30.2791,-87.5561,0.0,4.75,78.21,-9999.0,'1111122,1111122,1111122' 
DISL,ioos:station:DISL:PPTA:1,2015-03-01T13:00:00Z,30.2791,-87.5561,0.0,4.85,78.96,-9999.0,'1111122,1111122,1111122' 
DISL,ioos:station:DISL:PPTA:1,2015-03-01T13:30:00Z,30.2791,-87.5561,0.0,4.95,81.6,-9999.0,'1111122,1111122,1111122' 
DISL,ioos:station:DISL:PPTA:1,2015-03-01T14:00:00Z,30.2791,-87.5561,0.0,4.61,70.78,-9999.0,'1111122,1111122,1111122' 
DISL,ioos:station:DISL:PPTA:1,2015-03-01T14:30:00Z,30.2791,-87.5561,0.0,4.29,63.45,-9999.0,'1111122,1111122,1111122' 
DISL,ioos:station:DISL:PPTA:1,2015-03-01T15:00:00Z,30.2791,-87.5561,0.0,4.34,71.2,-9999.0,'1111122,1111122,1111122' 
DISL,ioos:station:DISL:PPTA:1,2015-03-01T15:30:00Z,30.2791,-87.5561,0.0,4.4,68.4,-9999.0,'1111122,1111122,1111122' 
DISL,ioos:station:DISL:PPTA:1,2015-03-01T16:00:00Z,30.2791,-87.5561,0.0,5.03,74.69,-9999.0,'1111122,1111122,1111122' 
DISL,ioos:station:DISL:PPTA:1,2015-03-01T16:30:00Z,30.2791,-87.5561,0.0,3.86,76.52,-9999.0,'1111122,1111122,1111122' 
DISL,ioos:station:DISL:PPTA:1,2015-03-01T17:00:00Z,30.2791,-87.5561,0.0,4.96,71.06,-9999.0,'1111122,1111122,1111122' 
DISL,ioos:station:DISL:PPTA:1,2015-03-01T17:30:00Z,30.2791,-87.5561,0.0,3.61,58.6,-9999.0,'1111122,1111122,1111122' 
DISL,ioos:station:DISL:PPTA:1,2015-03-01T18:00:00Z,30.2791,-87.5561,0.0,4.05,58.99,-9999.0,'1111122,1111122,1111122' 
DISL,ioos:station:DISL:PPTA:1,2015-03-01T18:30:00Z,30.2791,-87.5561,0.0,3.63,59.67,-9999.0,'1111122,1111122,1111122' 
DISL,ioos:station:DISL:PPTA:1,2015-03-01T19:00:00Z,30.2791,-87.5561,0.0,3.61,69.63,-9999.0,'1111122,1111122,1111122' 
DISL,ioos:station:DISL:PPTA:1,2015-03-01T19:30:00Z,30.2791,-87.5561,0.0,2.76,56.3,-9999.0,'1111122,1111122,1111122' 
DISL,ioos:station:DISL:PPTA:1,2015-03-01T20:00:00Z,30.2791,-87.5561,0.0,3.14,75.28,-9999.0,'1111122,1111122,1111122' 
DISL,ioos:station:DISL:PPTA:1,2015-03-01T20:30:00Z,30.2791,-87.5561,0.0,2.73,74.35,-9999.0,'1111122,1111122,1111122' 
DISL,ioos:station:DISL:PPTA:1,2015-03-01T21:00:00Z,30.2791,-87.5561,0.0,4.82,73.5,-9999.0,'1111122,1111122,1111122' 
DISL,ioos:station:DISL:PPTA:1,2015-03-01T21:30:00Z,30.2791,-87.5561,0.0,4.82,71.58,-9999.0,'1111122,1111122,1111122' 
DISL,ioos:station:DISL:PPTA:1,2015-03-01T22:00:00Z,30.2791,-87.5561,0.0,3.27,70.79,-9999.0,'1111122,1111122,1111122' 
DISL,ioos:station:DISL:PPTA:1,2015-03-01T22:30:00Z,30.2791,-87.5561,0.0,3.2,71.43,-9999.0,'1111122,1111122,1111122' 
DISL,ioos:station:DISL:PPTA:1,2015-03-01T23:00:00Z,30.2791,-87.5561,0.0,2.87,71.53,-9999.0,'1111122,1111122,1111122' 
DISL,ioos:station:DISL:PPTA:1,2015-03-01T23:30:00Z,30.2791,-87.5561,0.0,2.94,67.97,-9999.0,'1111122,1111122,1111122' 
DISL,ioos:station:DISL:PPTA:1,2015-03-02T00:00:00Z,30.2791,-87.5561,0.0,3.47,63.52,-9999.0,'1111122,1111122,1111122' 
DISL,ioos:station:DISL:PPTA:1,2015-03-02T00:30:00Z,30.2791,-87.5561,0.0,2.53,68.85,-9999.0,'1111122,1111122,1111122' 
DISL,ioos:station:DISL:PPTA:1,2015-03-02T01:00:00Z,30.2791,-87.5561,0.0,2.78,78.82,-9999.0,'1111122,1111122,1111122' 
DISL,ioos:station:DISL:PPTA:1,2015-03-02T01:30:00Z,30.2791,-87.5561,0.0,2.78,86.4,-9999.0,'1111122,1111122,1111122' 
DISL,ioos:station:DISL:PPTA:1,2015-03-02T02:00:00Z,30.2791,-87.5561,0.0,2.57,77.97,-9999.0,'1111122,1111122,1111122' 
DISL,ioos:station:DISL:PPTA:1,2015-03-02T02:30:00Z,30.2791,-87.5561,0.0,3.35,81.3,-9999.0,'1111122,1111122,1111122' 
DISL,ioos:station:DISL:PPTA:1,2015-03-02T03:00:00Z,30.2791,-87.5561,0.0,3.64,71.68,-9999.0,'1111122,1111122,1111122' 
DISL,ioos:station:DISL:PPTA:1,2015-03-02T03:30:00Z,30.2791,-87.5561,0.0,3.45,57.38,-9999.0,'1111122,1111122,1111122' 
DISL,ioos:station:DISL:PPTA:1,2015-03-02T04:00:00Z,30.2791,-87.5561,0.0,3.48,61.04,-9999.0,'1111122,1111122,1111122' 
DISL,ioos:station:DISL:PPTA:1,2015-03-02T04:30:00Z,30.2791,-87.5561,0.0,3.25,49.61,-9999.0,'1111122,1111122,1111122' 
DISL,ioos:station:DISL:PPTA:1,2015-03-02T05:00:00Z,30.2791,-87.5561,0.0,3.32,58.91,-9999.0,'1111122,1111122,1111122' 
DISL,ioos:station:DISL:PPTA:1,2015-03-02T05:30:00Z,30.2791,-87.5561,0.0,3.6,56.22,-9999.0,'1111122,1111122,1111122' 
DISL,ioos:station:DISL:PPTA:1,2015-03-02T06:00:00Z,30.2791,-87.5561,0.0,3.74,53.28,-9999.0,'1111122,1111122,1111122' 
DISL,ioos:station:DISL:PPTA:1,2015-03-02T06:30:00Z,30.2791,-87.5561,0.0,4.07,52.0,-9999.0,'1111122,1111122,1111122' 
DISL,ioos:station:DISL:PPTA:1,2015-03-02T07:00:00Z,30.2791,-87.5561,0.0,3.38,65.0,-9999.0,'1111122,1111122,1111122' 
DISL,ioos:station:DISL:PPTA:1,2015-03-02T07:30:00Z,30.2791,-87.5561,0.0,2.29,81.3,-9999.0,'1111122,1111122,1111122' 
DISL,ioos:station:DISL:PPTA:1,2015-03-02T08:00:00Z,30.2791,-87.5561,0.0,2.93,87.2,-9999.0,'1111122,1111122,1111122' 
DISL,ioos:station:DISL:PPTA:1,2015-03-02T08:30:00Z,30.2791,-87.5561,0.0,2.89,117.1,-9999.0,'1111122,1111122,1111122' 
DISL,ioos:station:DISL:PPTA:1,2015-03-02T09:00:00Z,30.2791,-87.5561,0.0,2.4,125.4,-9999.0,'1111122,1111122,1111122' 
DISL,ioos:station:DISL:PPTA:1,2015-03-02T09:30:00Z,30.2791,-87.5561,0.0,3.74,122.7,-9999.0,'1111122,1111122,1111122' 
DISL,ioos:station:DISL:PPTA:1,2015-03-02T10:00:00Z,30.2791,-87.5561,0.0,2.65,142.2,-9999.0,'1111122,1111122,1111122' 
DISL,ioos:station:DISL:PPTA:1,2015-03-02T10:30:00Z,30.2791,-87.5561,0.0,2.72,124.0,-9999.0,'1111122,1111122,1111122' 
DISL,ioos:station:DISL:PPTA:1,2015-03-02T11:00:00Z,30.2791,-87.5561,0.0,3.17,141.6,-9999.0,'1111122,1111122,1111122' 
DISL,ioos:station:DISL:PPTA:1,2015-03-02T11:30:00Z,30.2791,-87.5561,0.0,1.21,183.0,-9999.0,'1111122,1111122,1111122' 
DISL,ioos:station:DISL:PPTA:1,2015-03-02T12:00:00Z,30.2791,-87.5561,0.0,0.42,75.6,-9999.0,'1111122,1111122,1111122' 
DISL,ioos:station:DISL:PPTA:1,2015-03-02T12:30:00Z,30.2791,-87.5561,0.0,0.39,258.1,-9999.0,'1111122,1111122,1111122' 
DISL,ioos:station:DISL:PPTA:1,2015-03-02T13:00:00Z,30.2791,-87.5561,0.0,0.15,36.73,-9999.0,'1111122,1111122,1111122' 
DISL,ioos:station:DISL:PPTA:1,2015-03-02T13:30:00Z,30.2791,-87.5561,0.0,2.07,78.53,-9999.0,'1111122,1111122,1111122' 
DISL,ioos:station:DISL:PPTA:1,2015-03-02T14:00:00Z,30.2791,-87.5561,0.0,2.19,76.29,-9999.0,'1111122,1111122,1111122' 
DISL,ioos:station:DISL:PPTA:1,2015-03-02T14:30:00Z,30.2791,-87.5561,0.0,1.64,65.59,-9999.0,'1111122,1111122,1111122' 
DISL,ioos:station:DISL:PPTA:1,2015-03-02T15:00:00Z,30.2791,-87.5561,0.0,3.4,71.59,-9999.0,'1111122,1111122,1111122' 
DISL,ioos:station:DISL:PPTA:1,2015-03-02T15:30:00Z,30.2791,-87.5561,0.0,2.31,74.2,-9999.0,'1111122,1111122,1111122' 
DISL,ioos:station:DISL:PPTA:1,2015-03-02T16:00:00Z,30.2791,-87.5561,0.0,1.62,78.02,-9999.0,'1111122,1111122,1111122' 
DISL,ioos:station:DISL:PPTA:1,2015-03-02T16:30:00Z,30.2791,-87.5561,0.0,1.88,72.8,-9999.0,'1111122,1111122,1111122' 
DISL,ioos:station:DISL:PPTA:1,2015-03-02T17:00:00Z,30.2791,-87.5561,0.0,1.62,74.09,-9999.0,'1111122,1111122,1111122' 
DISL,ioos:station:DISL:PPTA:1,2015-03-02T17:30:00Z,30.2791,-87.5561,0.0,1.81,93.2,-9999.0,'1111122,1111122,1111122' 
DISL,ioos:station:DISL:PPTA:1,2015-03-02T18:00:00Z,30.2791,-87.5561,0.0,2.96,91.3,-9999.0,'1111122,1111122,1111122' 
DISL,ioos:station:DISL:PPTA:1,2015-03-02T18:30:00Z,30.2791,-87.5561,0.0,2.75,98.2,-9999.0,'1111122,1111122,1111122' 
DISL,ioos:station:DISL:PPTA:1,2015-03-02T19:00:00Z,30.2791,-87.5561,0.0,3.04,104.6,-9999.0,'1111122,1111122,1111122' 
DISL,ioos:station:DISL:PPTA:1,2015-03-02T19:30:00Z,30.2791,-87.5561,0.0,2.73,111.0,-9999.0,'1111122,1111122,1111122' 
DISL,ioos:station:DISL:PPTA:1,2015-03-02T20:00:00Z,30.2791,-87.5561,0.0,2.35,110.6,-9999.0,'1111122,1111122,1111122' 
DISL,ioos:station:DISL:PPTA:1,2015-03-02T20:30:00Z,30.2791,-87.5561,0.0,2.77,102.6,-9999.0,'1111122,1111122,1111122' 
DISL,ioos:station:DISL:PPTA:1,2015-03-02T21:00:00Z,30.2791,-87.5561,0.0,2.57,101.7,-9999.0,'1111122,1111122,1111122' 
DISL,ioos:station:DISL:PPTA:1,2015-03-02T21:30:00Z,30.2791,-87.5561,0.0,2.63,96.3,-9999.0,'1111122,1111122,1111122' 
DISL,ioos:station:DISL:PPTA:1,2015-03-02T22:00:00Z,30.2791,-87.5561,0.0,2.42,107.4,-9999.0,'1111122,1111122,1111122' 
DISL,ioos:station:DISL:PPTA:1,2015-03-02T22:30:00Z,30.2791,-87.5561,0.0,2.39,103.8,-9999.0,'1111122,1111122,1111122' 
DISL,ioos:station:DISL:PPTA:1,2015-03-02T23:00:00Z,30.2791,-87.5561,0.0,2.83,103.6,-9999.0,'1111122,1111122,1111122' 
DISL,ioos:station:DISL:PPTA:1,2015-03-02T23:30:00Z,30.2791,-87.5561,0.0,2.51,102.6,-9999.0,'1111122,1111122,1111122' 
DISL,ioos:station:DISL:PPTA:1,2015-03-03T00:00:00Z,30.2791,-87.5561,0.0,1.55,74.33,-9999.0,'1111122,1111122,1111122' 
DISL,ioos:station:DISL:PPTA:1,2015-03-03T00:30:00Z,30.2791,-87.5561,0.0,0.94,51.97,-9999.0,'1111122,1111122,1111122' 
DISL,ioos:station:DISL:PPTA:1,2015-03-03T01:00:00Z,30.2791,-87.5561,0.0,1.52,78.54,-9999.0,'1111122,1111122,1111122' 
DISL,ioos:station:DISL:PPTA:1,2015-03-03T01:30:00Z,30.2791,-87.5561,0.0,1.92,83.7,-9999.0,'1111122,1111122,1111122' 
DISL,ioos:station:DISL:PPTA:1,2015-03-03T02:00:00Z,30.2791,-87.5561,0.0,2.41,107.4,-9999.0,'1111122,1111122,1111122' 
DISL,ioos:station:DISL:PPTA:1,2015-03-03T02:30:00Z,30.2791,-87.5561,0.0,2.62,103.5,-9999.0,'1111122,1111122,1111122' 
DISL,ioos:station:DISL:PPTA:1,2015-03-03T03:00:00Z,30.2791,-87.5561,0.0,2.41,109.5,-9999.0,'1111122,1111122,1111122' 
DISL,ioos:station:DISL:PPTA:1,2015-03-03T03:30:00Z,30.2791,-87.5561,0.0,2.03,96.4,-9999.0,'1111122,1111122,1111122' 
DISL,ioos:station:DISL:PPTA:1,2015-03-03T04:00:00Z,30.2791,-87.5561,0.0,1.4,70.59,-9999.0,'1111122,1111122,1111122' 
DISL,ioos:station:DISL:PPTA:1,2015-03-03T04:30:00Z,30.2791,-87.5561,0.0,2.17,102.3,-9999.0,'1111122,1111122,1111122' 
DISL,ioos:station:DISL:PPTA:1,2015-03-03T05:00:00Z,30.2791,-87.5561,0.0,2.18,106.8,-9999.0,'1111122,1111122,1111122' 
DISL,ioos:station:DISL:PPTA:1,2015-03-03T05:30:00Z,30.2791,-87.5561,0.0,2.58,111.8,-9999.0,'1111122,1111122,1111122' 
DISL,ioos:station:DISL:PPTA:1,2015-03-03T06:00:00Z,30.2791,-87.5561,0.0,2.05,94.6,-9999.0,'1111122,1111122,1111122' 
DISL,ioos:station:DISL:PPTA:1,2015-03-03T06:30:00Z,30.2791,-87.5561,0.0,0.75,59.9,-9999.0,'1111122,1111122,1111122' 
DISL,ioos:station:DISL:PPTA:1,2015-03-03T07:00:00Z,30.2791,-87.5561,0.0,0.1,24.15,-9999.0,'1111122,1111122,1111122' 
DISL,ioos:station:DISL:PPTA:1,2015-03-03T07:30:00Z,30.2791,-87.5561,0.0,0.5,60.6,-9999.0,'1111122,1111122,1111122' 
DISL,ioos:station:DISL:PPTA:1,2015-03-03T08:00:00Z,30.2791,-87.5561,0.0,0.14,100.9,-9999.0,'1111122,1111122,1111122' 
DISL,ioos:station:DISL:PPTA:1,2015-03-03T08:30:00Z,30.2791,-87.5561,0.0,0.39,103.6,-9999.0,'1111122,1111122,1111122' 
DISL,ioos:station:DISL:PPTA:1,2015-03-03T09:00:00Z,30.2791,-87.5561,0.0,0.14,119.5,-9999.0,'1111122,1111122,1111122' 
DISL,ioos:station:DISL:PPTA:1,2015-03-03T09:30:00Z,30.2791,-87.5561,0.0,0.33,122.6,-9999.0,'1111122,1111122,1111122' 
DISL,ioos:station:DISL:PPTA:1,2015-03-03T10:00:00Z,30.2791,-87.5561,0.0,0.45,167.0,-9999.0,'1111122,1111122,1111122' 
DISL,ioos:station:DISL:PPTA:1,2015-03-03T10:30:00Z,30.2791,-87.5561,0.0,1.42,155.2,-9999.0,'1111122,1111122,1111122' 
DISL,ioos:station:DISL:PPTA:1,2015-03-03T11:00:00Z,30.2791,-87.5561,0.0,1.8,167.9,-9999.0,'1111122,1111122,1111122' 
DISL,ioos:station:DISL:PPTA:1,2015-03-03T11:30:00Z,30.2791,-87.5561,0.0,1.75,131.5,-9999.0,'1111122,1111122,1111122' 
DISL,ioos:station:DISL:PPTA:1,2015-03-03T12:00:00Z,30.2791,-87.5561,0.0,1.56,124.6,-9999.0,'1111122,1111122,1111122' 
DISL,ioos:station:DISL:PPTA:1,2015-03-03T12:30:00Z,30.2791,-87.5561,0.0,1.24,130.0,-9999.0,'1111122,1111122,1111122' 
DISL,ioos:station:DISL:PPTA:1,2015-03-03T13:00:00Z,30.2791,-87.5561,0.0,1.05,120.1,-9999.0,'1111122,1111122,1111122' 
DISL,ioos:station:DISL:PPTA:1,2015-03-03T13:30:00Z,30.2791,-87.5561,0.0,1.44,116.7,-9999.0,'1111122,1111122,1111122' 
DISL,ioos:station:DISL:PPTA:1,2015-03-03T14:00:00Z,30.2791,-87.5561,0.0,1.65,121.1,-9999.0,'1111122,1111122,1111122' 
DISL,ioos:station:DISL:PPTA:1,2015-03-03T14:30:00Z,30.2791,-87.5561,0.0,1.15,136.8,-9999.0,'1111122,1111122,1111122' 
DISL,ioos:station:DISL:PPTA:1,2015-03-03T15:00:00Z,30.2791,-87.5561,0.0,0.66,146.9,-9999.0,'1111122,1111122,1111122' 
DISL,ioos:station:DISL:PPTA:1,2015-03-03T15:30:00Z,30.2791,-87.5561,0.0,0.43,77.77,-9999.0,'1111122,1111122,1111122' 
DISL,ioos:station:DISL:PPTA:1,2015-03-03T16:00:00Z,30.2791,-87.5561,0.0,0.99,99.2,-9999.0,'1111122,1111122,1111122' 
DISL,ioos:station:DISL:PPTA:1,2015-03-03T16:30:00Z,30.2791,-87.5561,0.0,1.68,114.6,-9999.0,'1111122,1111122,1111122' 
DISL,ioos:station:DISL:PPTA:1,2015-03-03T17:00:00Z,30.2791,-87.5561,0.0,1.69,113.0,-9999.0,'1111122,1111122,1111122' 
DISL,ioos:station:DISL:PPTA:1,2015-03-03T17:30:00Z,30.2791,-87.5561,0.0,2.1,109.6,-9999.0,'1111122,1111122,1111122' 
DISL,ioos:station:DISL:PPTA:1,2015-03-03T18:00:00Z,30.2791,-87.5561,0.0,2.53,110.5,-9999.0,'1111122,1111122,1111122' 
DISL,ioos:station:DISL:PPTA:1,2015-03-03T18:30:00Z,30.2791,-87.5561,0.0,2.61,108.5,-9999.0,'1111122,1111122,1111122' 
DISL,ioos:station:DISL:PPTA:1,2015-03-03T19:00:00Z,30.2791,-87.5561,0.0,3.02,111.2,-9999.0,'1111122,1111122,1111122' 
DISL,ioos:station:DISL:PPTA:1,2015-03-03T19:30:00Z,30.2791,-87.5561,0.0,3.43,108.9,-9999.0,'1111122,1111122,1111122' 
DISL,ioos:station:DISL:PPTA:1,2015-03-03T20:00:00Z,30.2791,-87.5561,0.0,3.74,115.3,-9999.0,'1111122,1111122,1111122' 
DISL,ioos:station:DISL:PPTA:1,2015-03-03T20:30:00Z,30.2791,-87.5561,0.0,3.42,120.0,-9999.0,'1111122,1111122,1111122' 
DISL,ioos:station:DISL:PPTA:1,2015-03-03T21:00:00Z,30.2791,-87.5561,0.0,2.5,127.2,-9999.0,'1111122,1111122,1111122' 
DISL,ioos:station:DISL:PPTA:1,2015-03-03T21:30:00Z,30.2791,-87.5561,0.0,2.3,126.0,-9999.0,'1111122,1111122,1111122' 
DISL,ioos:station:DISL:PPTA:1,2015-03-03T22:00:00Z,30.2791,-87.5561,0.0,2.42,118.5,-9999.0,'1111122,1111122,1111122' 
DISL,ioos:station:DISL:PPTA:1,2015-03-03T22:30:00Z,30.2791,-87.5561,0.0,2.96,117.1,-9999.0,'1111122,1111122,1111122' 
DISL,ioos:station:DISL:PPTA:1,2015-03-03T23:00:00Z,30.2791,-87.5561,0.0,3.22,113.6,-9999.0,'1111122,1111122,1111122' 
DISL,ioos:station:DISL:PPTA:1,2015-03-03T23:30:00Z,30.2791,-87.5561,0.0,3.57,111.9,-9999.0,'1111122,1111122,1111122' 
DISL,ioos:station:DISL:PPTA:1,2015-03-04T00:00:00Z,30.2791,-87.5561,0.0,3.35,107.8,-9999.0,'1111122,1111122,1111122' 
DISL,ioos:station:DISL:PPTA:1,2015-03-04T00:30:00Z,30.2791,-87.5561,0.0,3.12,112.1,-9999.0,'1111122,1111122,1111122' 
DISL,ioos:station:DISL:PPTA:1,2015-03-04T01:00:00Z,30.2791,-87.5561,0.0,2.78,109.3,-9999.0,'1111122,1111122,1111122' 
DISL,ioos:station:DISL:PPTA:1,2015-03-04T01:30:00Z,30.2791,-87.5561,0.0,2.98,113.8,-9999.0,'1111122,1111122,1111122' 
DISL,ioos:station:DISL:PPTA:1,2015-03-04T02:00:00Z,30.2791,-87.5561,0.0,3.0,118.3,-9999.0,'1111122,1111122,1111122' 
DISL,ioos:station:DISL:PPTA:1,2015-03-04T02:30:00Z,30.2791,-87.5561,0.0,2.44,117.2,-9999.0,'1111122,1111122,1111122' 
DISL,ioos:station:DISL:PPTA:1,2015-03-04T03:00:00Z,30.2791,-87.5561,0.0,4.34,122.8,-9999.0,'1111122,1111122,1111122' 
DISL,ioos:station:DISL:PPTA:1,2015-03-04T03:30:00Z,30.2791,-87.5561,0.0,3.53,122.0,-9999.0,'1111122,1111122,1111122' 
DISL,ioos:station:DISL:PPTA:1,2015-03-04T04:00:00Z,30.2791,-87.5561,0.0,3.12,125.1,-9999.0,'1111122,1111122,1111122' 
DISL,ioos:station:DISL:PPTA:1,2015-03-04T04:30:00Z,30.2791,-87.5561,0.0,2.35,132.0,-9999.0,'1111122,1111122,1111122' 
DISL,ioos:station:DISL:PPTA:1,2015-03-04T05:00:00Z,30.2791,-87.5561,0.0,2.75,126.6,-9999.0,'1111122,1111122,1111122' 
DISL,ioos:station:DISL:PPTA:1,2015-03-04T05:30:00Z,30.2791,-87.5561,0.0,2.31,129.1,-9999.0,'1111122,1111122,1111122' 
DISL,ioos:station:DISL:PPTA:1,2015-03-04T06:00:00Z,30.2791,-87.5561,0.0,1.98,133.8,-9999.0,'1111122,1111122,1111122' 
DISL,ioos:station:DISL:PPTA:1,2015-03-04T06:30:00Z,30.2791,-87.5561,0.0,1.63,145.9,-9999.0,'1111122,1111122,1111122' 
DISL,ioos:station:DISL:PPTA:1,2015-03-04T07:00:00Z,30.2791,-87.5561,0.0,0.99,154.2,-9999.0,'1111122,1111122,1111122' 
DISL,ioos:station:DISL:PPTA:1,2015-03-04T07:30:00Z,30.2791,-87.5561,0.0,0.62,123.5,-9999.0,'1111122,1111122,1111122' 
DISL,ioos:station:DISL:PPTA:1,2015-03-04T08:00:00Z,30.2791,-87.5561,0.0,1.0,132.8,-9999.0,'1111122,1111122,1111122' 
DISL,ioos:station:DISL:PPTA:1,2015-03-04T08:30:00Z,30.2791,-87.5561,0.0,1.99,126.2,-9999.0,'1111122,1111122,1111122' 
DISL,ioos:station:DISL:PPTA:1,2015-03-04T09:00:00Z,30.2791,-87.5561,0.0,1.95,126.0,-9999.0,'1111122,1111122,1111122' 
DISL,ioos:station:DISL:PPTA:1,2015-03-04T09:30:00Z,30.2791,-87.5561,0.0,1.96,136.5,-9999.0,'1111122,1111122,1111122' 
DISL,ioos:station:DISL:PPTA:1,2015-03-04T10:00:00Z,30.2791,-87.5561,0.0,2.57,132.2,-9999.0,'1111122,1111122,1111122' 
DISL,ioos:station:DISL:PPTA:1,2015-03-04T10:30:00Z,30.2791,-87.5561,0.0,2.24,127.4,-9999.0,'1111122,1111122,1111122' 
DISL,ioos:station:DISL:PPTA:1,2015-03-04T11:00:00Z,30.2791,-87.5561,0.0,2.91,118.5,-9999.0,'1111122,1111122,1111122' 
DISL,ioos:station:DISL:PPTA:1,2015-03-04T11:30:00Z,30.2791,-87.5561,0.0,1.59,127.0,-9999.0,'1111122,1111122,1111122' 
DISL,ioos:station:DISL:PPTA:1,2015-03-04T12:00:00Z,30.2791,-87.5561,0.0,1.36,145.7,-9999.0,'1111122,1111122,1111122' 
DISL,ioos:station:DISL:PPTA:1,2015-03-04T12:30:00Z,30.2791,-87.5561,0.0,1.57,163.8,-9999.0,'1111122,1111122,1111122' 
DISL,ioos:station:DISL:PPTA:1,2015-03-04T13:00:00Z,30.2791,-87.5561,0.0,2.16,143.0,-9999.0,'1111122,1111122,1111122' 
DISL,ioos:station:DISL:PPTA:1,2015-03-04T13:30:00Z,30.2791,-87.5561,0.0,2.45,130.7,-9999.0,'1111122,1111122,1111122' 
DISL,ioos:station:DISL:PPTA:1,2015-03-04T14:00:00Z,30.2791,-87.5561,0.0,2.09,126.4,-9999.0,'1111122,1111122,1111122' 
DISL,ioos:station:DISL:PPTA:1,2015-03-04T14:30:00Z,30.2791,-87.5561,0.0,1.78,137.3,-9999.0,'1111122,1111122,1111122' 
DISL,ioos:station:DISL:PPTA:1,2015-03-04T15:00:00Z,30.2791,-87.5561,0.0,2.63,142.1,-9999.0,'1111122,1111122,1111122' 
DISL,ioos:station:DISL:PPTA:1,2015-03-04T15:30:00Z,30.2791,-87.5561,0.0,3.21,141.4,-9999.0,'1111122,1111122,1111122' 
DISL,ioos:station:DISL:PPTA:1,2015-03-04T16:00:00Z,30.2791,-87.5561,0.0,3.44,135.1,-9999.0,'1111122,1111122,1111122' 
DISL,ioos:station:DISL:PPTA:1,2015-03-04T16:30:00Z,30.2791,-87.5561,0.0,3.08,140.4,-9999.0,'1111122,1111122,1111122' 
DISL,ioos:station:DISL:PPTA:1,2015-03-04T17:00:00Z,30.2791,-87.5561,0.0,3.17,151.1,-9999.0,'1111122,1111122,1111122' 
DISL,ioos:station:DISL:PPTA:1,2015-03-04T17:30:00Z,30.2791,-87.5561,0.0,4.15,158.1,-9999.0,'1111122,1111122,1111122' 
DISL,ioos:station:DISL:PPTA:1,2015-03-04T18:00:00Z,30.2791,-87.5561,0.0,2.77,152.6,-9999.0,'1111122,1111122,1111122' 
DISL,ioos:station:DISL:PPTA:1,2015-03-04T18:30:00Z,30.2791,-87.5561,0.0,3.16,162.8,-9999.0,'1111122,1111122,1111122' 
DISL,ioos:station:DISL:PPTA:1,2015-03-04T19:00:00Z,30.2791,-87.5561,0.0,2.07,168.9,-9999.0,'1111122,1111122,1111122' 
DISL,ioos:station:DISL:PPTA:1,2015-03-04T19:30:00Z,30.2791,-87.5561,0.0,3.92,155.1,-9999.0,'1111122,1111122,1111122' 
DISL,ioos:station:DISL:PPTA:1,2015-03-04T20:00:00Z,30.2791,-87.5561,0.0,3.08,163.5,-9999.0,'1111122,1111122,1111122' 
DISL,ioos:station:DISL:PPTA:1,2015-03-04T20:30:00Z,30.2791,-87.5561,0.0,2.68,163.2,-9999.0,'1111122,1111122,1111122' 
DISL,ioos:station:DISL:PPTA:1,2015-03-04T21:00:00Z,30.2791,-87.5561,0.0,2.42,163.5,-9999.0,'1111122,1111122,1111122' 
DISL,ioos:station:DISL:PPTA:1,2015-03-04T21:30:00Z,30.2791,-87.5561,0.0,2.26,160.2,-9999.0,'1111122,1111122,1111122' 
DISL,ioos:station:DISL:PPTA:1,2015-03-04T22:00:00Z,30.2791,-87.5561,0.0,2.66,151.0,-9999.0,'1111122,1111122,1111122' 
DISL,ioos:station:DISL:PPTA:1,2015-03-04T22:30:00Z,30.2791,-87.5561,0.0,2.48,150.7,-9999.0,'1111122,1111122,1111122' 
DISL,ioos:station:DISL:PPTA:1,2015-03-04T23:00:00Z,30.2791,-87.5561,0.0,1.42,162.2,-9999.0,'1111122,1111122,1111122' 
DISL,ioos:station:DISL:PPTA:1,2015-03-04T23:30:00Z,30.2791,-87.5561,0.0,2.06,166.9,-9999.0,'1111122,1111122,1111122' 
DISL,ioos:station:DISL:PPTA:1,2015-03-05T00:00:00Z,30.2791,-87.5561,0.0,2.17,168.7,-9999.0,'1111122,1111122,1111122' 
DISL,ioos:station:DISL:PPTA:1,2015-03-05T00:30:00Z,30.2791,-87.5561,0.0,1.93,161.1,-9999.0,'1111122,1111122,1111122' 
DISL,ioos:station:DISL:PPTA:1,2015-03-05T01:00:00Z,30.2791,-87.5561,0.0,1.76,151.2,-9999.0,'1111122,1111122,1111122' 
DISL,ioos:station:DISL:PPTA:1,2015-03-05T01:30:00Z,30.2791,-87.5561,0.0,1.16,150.7,-9999.0,'1111122,1111122,1111122' 
DISL,ioos:station:DISL:PPTA:1,2015-03-05T02:00:00Z,30.2791,-87.5561,0.0,1.34,156.8,-9999.0,'1111122,1111122,1111122' 
DISL,ioos:station:DISL:PPTA:1,2015-03-05T02:30:00Z,30.2791,-87.5561,0.0,2.05,168.2,-9999.0,'1111122,1111122,1111122' 
DISL,ioos:station:DISL:PPTA:1,2015-03-05T03:00:00Z,30.2791,-87.5561,0.0,3.73,166.3,-9999.0,'1111122,1111122,1111122' 
DISL,ioos:station:DISL:PPTA:1,2015-03-05T03:30:00Z,30.2791,-87.5561,0.0,4.28,161.9,-9999.0,'1111122,1111122,1111122' 
DISL,ioos:station:DISL:PPTA:1,2015-03-05T04:00:00Z,30.2791,-87.5561,0.0,4.32,164.2,-9999.0,'1111122,1111122,1111122' 
DISL,ioos:station:DISL:PPTA:1,2015-03-05T04:30:00Z,30.2791,-87.5561,0.0,4.31,170.4,-9999.0,'1111122,1111122,1111122' 